When you browse on this site, cookies collect data to enhance your experience and personalize the content and advertising you see.
Visit our Privacy Policy to learn more. By continuing to use the site, you agree to this use of cookies and data.
  • în România
  • Lista ţărilor
  • Pe 7 zile
  • Temperatura apei
  • Meteo pe hartă
  • Widget-uri
  • user-avatar
    Intrare

    Meteo pe oră la San Juan

    Astăzi, 22 Noiembrie, Vineri

    Timp Temperatura Precipitaţii Vânt Presiune Umiditate
    00:00 +24°C° 0.1 mm 6 m/s 705 mmHg 64%
    01:00 +25°C° 0 mm 5 m/s 706 mmHg 62%
    02:00 +25°C° 0 mm 5 m/s 706 mmHg 62%
    03:00 +25°C° 0 mm 4 m/s 706 mmHg 61%
    04:00 +25°C° 0 mm 4 m/s 706 mmHg 61%
    05:00 +25°C° 0 mm 4 m/s 707 mmHg 56%
    06:00 +26°C° 0 mm 5 m/s 707 mmHg 52%
    07:00 +26°C° 0 mm 7 m/s 708 mmHg 43%
    08:00 +27°C° 0 mm 7 m/s 708 mmHg 42%
    09:00 +27°C° 0 mm 6 m/s 707 mmHg 42%
    10:00 +28°C° 0 mm 6 m/s 707 mmHg 41%
    11:00 +28°C° 0 mm 5 m/s 707 mmHg 41%
    12:00 +29°C° 0 mm 5 m/s 706 mmHg 41%
    13:00 +29°C° 0 mm 5 m/s 706 mmHg 41%
    14:00 +30°C° 0 mm 4 m/s 705 mmHg 40%
    15:00 +30°C° 0 mm 4 m/s 705 mmHg 40%
    16:00 +30°C° 0 mm 4 m/s 705 mmHg 40%
    17:00 +30°C° 0 mm 4 m/s 705 mmHg 42%
    18:00 +29°C° 0 mm 4 m/s 706 mmHg 44%
    19:00 +28°C° 0 mm 4 m/s 706 mmHg 47%
    20:00 +28°C° 0 mm 3 m/s 706 mmHg 48%
    21:00 +28°C° 0 mm 3 m/s 706 mmHg 50%
    22:00 +27°C° 0 mm 3 m/s 707 mmHg 52%
    23:00 +27°C° 0 mm 3 m/s 706 mmHg 55%

    Mâine, 23 Noiembrie, Sâmbătă

    Timp Temperatura Precipitaţii Vânt Presiune Umiditate
    00:00 +26°C° 0 mm 3 m/s 706 mmHg 58%
    01:00 +26°C° 0 mm 3 m/s 706 mmHg 61%
    02:00 +25°C° 0.1 mm 3 m/s 705 mmHg 65%
    03:00 +25°C° 0.1 mm 2 m/s 705 mmHg 69%
    04:00 +24°C° 0.1 mm 2 m/s 705 mmHg 72%
    05:00 +24°C° 0.2 mm 2 m/s 705 mmHg 72%
    06:00 +24°C° 0.2 mm 2 m/s 705 mmHg 72%
    07:00 +24°C° 0.2 mm 2 m/s 705 mmHg 72%
    08:00 +26°C° 0 mm 3 m/s 705 mmHg 65%
    09:00 +28°C° 0 mm 4 m/s 705 mmHg 58%
    10:00 +29°C° 0 mm 5 m/s 705 mmHg 51%
    11:00 +30°C° 0 mm 5 m/s 704 mmHg 47%
    12:00 +33°C° 0 mm 6 m/s 703 mmHg 43%
    13:00 +34°C° 0 mm 6 m/s 703 mmHg 39%
    14:00 +34°C° 0 mm 7 m/s 702 mmHg 40%
    15:00 +34°C° 0 mm 7 m/s 702 mmHg 40%
    16:00 +34°C° 0 mm 8 m/s 701 mmHg 41%
    17:00 +33°C° 0 mm 8 m/s 701 mmHg 44%
    18:00 +32°C° 0 mm 8 m/s 702 mmHg 47%
    19:00 +29°C° 0 mm 8 m/s 702 mmHg 51%
    20:00 +29°C° 0 mm 8 m/s 702 mmHg 51%
    21:00 +29°C° 0 mm 8 m/s 702 mmHg 52%
    22:00 +28°C° 0 mm 8 m/s 702 mmHg 53%
    23:00 +28°C° 0 mm 8 m/s 702 mmHg 55%

    Poimâine, 24 Noiembrie, Duminică

    Timp Temperatura Precipitaţii Vânt Presiune Umiditate
    00:00 +27°C° 0 mm 8 m/s 701 mmHg 56%
    01:00 +26°C° 0 mm 8 m/s 700 mmHg 58%
    02:00 +26°C° 0 mm 7 m/s 700 mmHg 60%
    03:00 +24°C° 0 mm 6 m/s 700 mmHg 62%
    04:00 +24°C° 0 mm 6 m/s 699 mmHg 63%
    05:00 +26°C° 0 mm 6 m/s 699 mmHg 60%
    06:00 +27°C° 0 mm 7 m/s 699 mmHg 56%
    07:00 +28°C° 0 mm 7 m/s 699 mmHg 53%
    08:00 +30°C° 0 mm 7 m/s 699 mmHg 48%
    09:00 +32°C° 0 mm 7 m/s 699 mmHg 44%
    10:00 +34°C° 0 mm 6 m/s 699 mmHg 39%
    11:00 +35°C° 0 mm 6 m/s 698 mmHg 36%
    12:00 +36°C° 0 mm 5 m/s 698 mmHg 32%
    13:00 +37°C° 0 mm 4 m/s 697 mmHg 29%
    14:00 +37°C° 0 mm 4 m/s 697 mmHg 27%
    15:00 +38°C° 0 mm 4 m/s 697 mmHg 26%
    16:00 +38°C° 0 mm 4 m/s 697 mmHg 25%
    17:00 +35°C° 0.5 mm 5 m/s 697 mmHg 36%
    18:00 +32°C° 0.5 mm 6 m/s 698 mmHg 46%
    19:00 +28°C° 0.5 mm 7 m/s 698 mmHg 57%
    20:00 +27°C° 0.2 mm 7 m/s 698 mmHg 63%
    21:00 +26°C° 0.2 mm 6 m/s 699 mmHg 69%
    22:00 +24°C° 0.2 mm 6 m/s 699 mmHg 75%
    23:00 +23°C° 0 mm 7 m/s 699 mmHg 76%

    25 Noiembrie, Luni

    Timp Temperatura Precipitaţii Vânt Presiune Umiditate
    00:00 +23°C° 0 mm 7 m/s 699 mmHg 77%
    01:00 +22°C° 0 mm 8 m/s 699 mmHg 78%
    02:00 +22°C° 0 mm 8 m/s 700 mmHg 75%
    03:00 +22°C° 0 mm 8 m/s 700 mmHg 72%
    04:00 +22°C° 0 mm 8 m/s 701 mmHg 69%
    05:00 +23°C° 0 mm 8 m/s 701 mmHg 62%
    06:00 +23°C° 0 mm 8 m/s 701 mmHg 55%
    07:00 +24°C° 0 mm 9 m/s 702 mmHg 48%
    08:00 +26°C° 0 mm 8 m/s 702 mmHg 45%
    09:00 +27°C° 0 mm 8 m/s 702 mmHg 41%
    10:00 +28°C° 0 mm 7 m/s 702 mmHg 38%
    11:00 +29°C° 0.1 mm 7 m/s 701 mmHg 36%
    12:00 +29°C° 0.1 mm 7 m/s 701 mmHg 34%
    13:00 +30°C° 0.1 mm 7 m/s 700 mmHg 33%
    14:00 +30°C° 0 mm 7 m/s 700 mmHg 32%
    15:00 +31°C° 0 mm 8 m/s 700 mmHg 32%
    16:00 +31°C° 0 mm 8 m/s 699 mmHg 31%
    17:00 +28°C° 0 mm 7 m/s 700 mmHg 34%
    18:00 +27°C° 0 mm 6 m/s 700 mmHg 37%
    19:00 +26°C° 0 mm 5 m/s 700 mmHg 39%
    20:00 +26°C° 0 mm 5 m/s 701 mmHg 42%
    21:00 +25°C° 0 mm 5 m/s 701 mmHg 44%
    22:00 +24°C° 0 mm 6 m/s 701 mmHg 46%
    23:00 +23°C° 0.1 mm 7 m/s 701 mmHg 53%

    26 Noiembrie, Marţi

    Timp Temperatura Precipitaţii Vânt Presiune Umiditate
    00:00 +22°C° 0.1 mm 7 m/s 701 mmHg 60%
    01:00 +21°C° 0.1 mm 8 m/s 701 mmHg 67%
    02:00 +20°C° 0.3 mm 8 m/s 701 mmHg 71%
    03:00 +17°C° 0.3 mm 9 m/s 702 mmHg 75%
    04:00 +16°C° 0.3 mm 9 m/s 702 mmHg 79%
    05:00 +16°C° 0.1 mm 9 m/s 702 mmHg 78%
    06:00 +16°C° 0.1 mm 9 m/s 703 mmHg 77%
    07:00 +16°C° 0.1 mm 9 m/s 703 mmHg 75%
    08:00 +15°C° 0 mm 9 m/s 703 mmHg 73%
    09:00 +14°C° 0 mm 10 m/s 703 mmHg 71%
    10:00 +14°C° 0 mm 10 m/s 703 mmHg 69%
    11:00 +16°C° 0 mm 9 m/s 703 mmHg 62%
    12:00 +17°C° 0 mm 8 m/s 703 mmHg 55%
    13:00 +18°C° 0 mm 7 m/s 703 mmHg 47%
    14:00 +20°C° 0 mm 6 m/s 703 mmHg 46%
    15:00 +20°C° 0 mm 6 m/s 702 mmHg 44%
    16:00 +21°C° 0 mm 6 m/s 702 mmHg 42%
    17:00 +20°C° 0 mm 5 m/s 703 mmHg 44%
    18:00 +19°C° 0 mm 4 m/s 704 mmHg 46%
    19:00 +19°C° 0 mm 3 m/s 704 mmHg 47%
    20:00 +18°C° 0 mm 2 m/s 705 mmHg 49%
    21:00 +18°C° 0 mm 2 m/s 705 mmHg 50%
    22:00 +18°C° 0 mm 1 m/s 705 mmHg 51%
    23:00 +18°C° 0 mm 1 m/s 705 mmHg 54%

    27 Noiembrie, Miercuri

    Timp Temperatura Precipitaţii Vânt Presiune Umiditate
    00:00 +16°C° 0 mm 1 m/s 704 mmHg 56%
    01:00 +15°C° 0 mm 0 m/s 704 mmHg 59%
    02:00 +15°C° 0 mm 0 m/s 704 mmHg 60%
    03:00 +14°C° 0 mm 0 m/s 704 mmHg 61%
    04:00 +14°C° 0 mm 0 m/s 704 mmHg 62%
    05:00 +16°C° 0 mm 1 m/s 704 mmHg 57%
    06:00 +19°C° 0 mm 1 m/s 704 mmHg 52%
    07:00 +19°C° 0 mm 2 m/s 705 mmHg 46%
    08:00 +21°C° 0 mm 2 m/s 705 mmHg 43%
    09:00 +22°C° 0 mm 3 m/s 705 mmHg 39%
    10:00 +25°C° 0 mm 4 m/s 704 mmHg 36%
    11:00 +26°C° 0 mm 4 m/s 704 mmHg 33%
    12:00 +27°C° 0 mm 5 m/s 704 mmHg 31%
    13:00 +28°C° 0 mm 5 m/s 703 mmHg 28%
    14:00 +28°C° 0 mm 5 m/s 703 mmHg 27%
    15:00 +28°C° 0 mm 5 m/s 703 mmHg 26%
    16:00 +28°C° 0 mm 5 m/s 702 mmHg 25%
    17:00 +27°C° 0 mm 4 m/s 703 mmHg 26%
    18:00 +26°C° 0 mm 4 m/s 703 mmHg 27%
    19:00 +25°C° 0 mm 3 m/s 704 mmHg 27%
    20:00 +25°C° 0 mm 3 m/s 704 mmHg 28%
    21:00 +25°C° 0 mm 3 m/s 704 mmHg 29%
    22:00 +24°C° 0 mm 3 m/s 704 mmHg 30%
    23:00 +22°C° 0 mm 3 m/s 704 mmHg 32%
    Arată mai mult